Regional Weather Roundup
Issued by NWS

Home | Current Version | Previous Version | Graphics & Text | Print | Product List | Glossary Off
Versions: 1 2 3 4 5 6 7 8 9 10 11 12 13 14 15 16 17 18 19 20 21 22 23 24 25 26 27 28 29 30 31 32 33 34 35 36 37 38 39 40 41 42 43 44 45 46 47 48 49 50

000
ASUS43 KFSD 011910
RWRSD

WEATHER ROUNDUP FOR SOUTH DAKOTA
NATIONAL WEATHER SERVICE SIOUX FALLS SD
100 PM CST SUN FEB 01 2015

NOTE: "FAIR" INDICATES FEW OR NO CLOUDS BELOW 12,000 FEET WITH NO
SIGNIFICANT WEATHER AND/OR OBSTRUCTIONS TO VISIBILITY.


SDZ001>005-009-010-012>017-012000-
NORTHWEST AND NORTH CENTRAL SOUTH DAKOTA

CITY           SKY/WX    TMP DP  RH WIND       PRES   REMARKS
BUFFALO          N/A      7   1  76 W9        30.27F WCI  -7
FAITH            N/A      4  -5  66 N13       30.37F WCI -13
MOBRIDGE       SUNNY      3 -11  52 N14       30.42F WCI -15
$$

SDZ012>016-024>037-041>051-057-063-072>074-012000-
SOUTHWEST AND SOUTH CENTRAL SOUTH DAKOTA

CITY           SKY/WX    TMP DP  RH WIND       PRES   REMARKS
RAPID CTY ARPT SUNNY     10   4  76 N15       30.32F WCI  -7
PIERRE         CLOUDY     2  -6  69 N20       30.44F WCI -19
CUSTER         SUNNY     15   0  51 VRB3      30.11F
ELLSWORTH AFB  SUNNY      9   6  84 N16       30.32F WCI  -8
PHILIP         MOSUNNY    7  -2  66 N13       30.42F WCI  -9
PINE RIDGE     PTSUNNY    9   0  67 N14       30.33F WCI  -7
WINNER         LGT SNOW   3  -4  72 NW20      30.38F WCI -18
$$

SDZ004>011-016>023-039-040-012000-
NORTHEAST SOUTH DAKOTA

CITY           SKY/WX    TMP DP  RH WIND       PRES   REMARKS
ABERDEEN       SUNNY      4  -8  57 N16       30.45F WCI -15
WATERTOWN      MOSUNNY    5  -2  72 N17       30.29F WCI -14
SISSETON         N/A      2  -9  60 N18       30.41F WCI -19
$$

SDZ017-020-022-023-036>040-048>070-012000-
SOUTHEAST SOUTH DAKOTA

CITY           SKY/WX    TMP DP  RH WIND       PRES   REMARKS
SIOUX FALLS    LGT SNOW   7   0  73 N21G32    30.24F BLWGSNOWWCI -13
HURON          MIX PCPN   4  -4  69 N20       30.40S WCI -17
CHAMBERLAIN    CLOUDY     2  -4  73 N22G28    30.39F HAZE    WCI -20
MITCHELL       MIX PCPN   3  -2  79 N18       30.38S WCI -17
YANKTON          N/A      7   0  72 NW22G29   30.30R VSB 3/4 WCI -14
$$

ABBREVIATIONS USED IN REMARKS
   TC - TEMPERATURE IN CELSIUS
  WCI - WIND CHILL INDEX
   HX - HEAT INDEX
  VSB - VISIBILITY



USA.gov is the U.S. government's official web portal to all federal, state and local government web resources and services.